Orbital Elements at Epoch 2459200.5 (2020-Dec-17.0) TDB
Reference: JPL 15 (heliocentric ecliptic J2000)
Element | Value | Uncertainty (1-sigma) | Units |
e | .09501341783815485 | 5.7008e-08 | |
a | 3.118420237785431 | 3.8917e-08 | au |
q | 2.822128472737766 | 1.9672e-07 | au |
i | 17.96005382002498 | 6.0615e-06 | deg |
node | 63.78125297497128 | 1.9236e-05 | deg |
peri | .4832653641452013 | 4.3685e-05 | deg |
M | 332.8114883049157 | 3.5888e-05 | deg |
tp | 2459352.408935816834 (2021-May-17.90893582) | 0.00020028 | TDB |
period | 2011.40899168628 5.51 | 3.7652e-05 1.031e-07 | d yr |
n | .1789790149531902 | 3.3504e-09 | deg/d |
Q | 3.414712002833096 | 4.2614e-08 | au |
|
| | Orbit Determination Parameters
Additional Information
|